Home   Weather   Santorini   Past weeks

Flag for Greece Past Weather in Santorini, Greece — Yesterday and Last 2 Weeks

68 °F

Passing clouds.

Feels Like: 68 °F
Forecast: 67 / 70 °F
Wind: 23 mph from North

Location: Santorini Island

Current Time: Oct 25, 2016 at 6:46:07 PM

Latest Report: Oct 25, 2016 at 5:50 PM

Visibility: N/A

Pressure: 30.09 "Hg

Humidity: 60%

Dew Point: 54 °F

Location of SantoriniLocation

Past Weather in Santorini — Graph


Santorini Temperature Yesterday

Maximum temperature yesterday: 73 °F (at 11:50 AM)
Minimum temperature yesterday: 66 °F (at 1:20 AM)
Average temperature yesterday: 69 °F

High & Low Weather Summary for the Past Weeks

High84 °F (Oct 11, 10:50 PM)94% (Oct 11, 5:50 PM)30.15 "Hg (Oct 11, 5:50 PM)
Low59 °F (Oct 21, 1:50 AM)37% (Oct 11, 10:50 PM)29.77 "Hg (Oct 11, 10:50 PM)
Average69 °F68%30.04 "Hg
* Reported Oct 10 5:20 PM — Oct 25 5:50 PM, Santorini, Weather by CustomWeather, © 2016

Note: Actual official high and low records may vary slightly from our data, if they occured in-between our weather recording intervals... More about our weather records


Santorini Weather History for the Previous 24 Hours

Scroll right to see more
Time TempWeatherWind HumidityBarometerVisibility
5:50 PM
Tue, Oct 25
68 °FPassing clouds.23 mph60%30.09 "HgN/A
4:50 PM68 °FSunny.25 mph60%30.09 "Hg10 mi
4:20 PM70 °FSunny.23 mph57%30.09 "Hg10 mi
3:50 PM70 °FSunny.23 mph57%30.09 "Hg10 mi
3:20 PM70 °FSunny.21 mph60%30.12 "Hg10 mi
2:50 PM70 °FSunny.24 mph60%30.12 "Hg10 mi
2:20 PM72 °FSunny.25 mph47%30.12 "Hg10 mi
1:50 PM72 °FSunny.20 mph47%30.12 "Hg10 mi
1:20 PM70 °FSunny.25 mph53%30.15 "Hg10 mi
12:50 PM70 °FSunny.25 mph53%30.15 "Hg10 mi
12:20 PM70 °FSunny.29 mph53%30.15 "Hg10 mi
11:50 AM70 °FSunny.29 mph53%30.15 "Hg10 mi
11:20 AM70 °FSunny.29 mph53%30.15 "Hg10 mi
10:50 AM70 °FSunny.29 mph53%30.15 "Hg10 mi
10:20 AM68 °FPassing clouds.29 mph60%30.15 "HgN/A
9:50 AM68 °FPassing clouds.26 mph60%30.15 "HgN/A
9:20 AM66 °FPassing clouds.25 mph64%30.12 "HgN/A
8:50 AM66 °FPassing clouds.25 mph64%30.12 "HgN/A
8:20 AM66 °FPassing clouds.24 mph64%30.12 "HgN/A
7:50 AM66 °FPassing clouds.20 mph64%30.12 "HgN/A
7:20 AM66 °FPassing clouds.17 mph64%30.09 "HgN/A
6:50 AM66 °FPassing clouds.21 mph64%30.09 "HgN/A
6:20 AM66 °FPassing clouds.22 mph60%30.09 "HgN/A
5:50 AM66 °FPassing clouds.22 mph60%30.09 "HgN/A
5:20 AM66 °FPassing clouds.23 mph64%30.09 "HgN/A
4:50 AM66 °FPassing clouds.23 mph64%30.09 "HgN/A
4:20 AM66 °FLight rain. Overcast.26 mph64%30.09 "HgN/A
3:50 AM66 °FLight rain. Overcast.25 mph64%30.09 "HgN/A
3:20 AM66 °FLight rain. Overcast.23 mph64%30.12 "HgN/A
2:50 AM66 °FLight rain. Overcast.26 mph64%30.09 "HgN/A
1:50 AM68 °FLight rain. Overcast.25 mph60%30.09 "HgN/A
1:20 AM68 °FLight rain. Overcast.22 mph69%30.09 "HgN/A
12:50 AM68 °FPassing clouds.23 mph64%30.09 "HgN/A
12:20 AM68 °FPassing clouds.26 mph64%30.09 "HgN/A
11:50 PM
Mon, Oct 24
68 °FPassing clouds.17 mph64%30.12 "HgN/A
11:20 PM68 °FPassing clouds.21 mph69%30.12 "HgN/A
10:50 PM68 °FPassing clouds.21 mph69%30.12 "HgN/A
10:20 PM68 °FPassing clouds.28 mph73%30.09 "HgN/A
9:50 PM68 °FPassing clouds.22 mph73%30.12 "HgN/A
8:50 PM68 °FPassing clouds.22 mph69%30.12 "HgN/A
8:20 PM68 °FPassing clouds.24 mph73%30.12 "HgN/A
7:50 PM68 °FPassing clouds.21 mph73%30.12 "HgN/A
7:20 PM68 °FPassing clouds.20 mph73%30.12 "HgN/A
6:50 PM70 °FPassing clouds.17 mph69%30.12 "HgN/A
6:20 PM70 °FPassing clouds.17 mph69%30.12 "HgN/A
Weather by CustomWeather, © 2016

See weather overviewHow to use our weather pages